Location: Newark
(39.9267°N, 1.8017°W)
Time: 15:42:06
(UTC+00:00)

Tiangong 2 - Visible Passes

Search period start: 18 March 2019 00:00
Search period end: 28 March 2019 00:00
Orbit: 379 x 390 km, 42.8° (Epoch: 18 March)

Date Brightness Start Highest point End Pass type
(mag) Time Alt. Az. Time Alt. Az. Time Alt. Az.
18 Mar 3.9 03:52:48 19° ENE 03:52:48 19° ENE 03:53:51 10° ENE visible
18 Mar 1.4 05:25:02 13° WNW 05:27:45 61° NNE 05:30:53 10° E visible
19 Mar 1.7 04:28:18 50° NNE 04:28:18 50° NNE 04:31:20 10° E visible
20 Mar 4.7 03:31:37 11° ENE 03:31:37 11° ENE 03:31:45 10° ENE visible
20 Mar 1.0 05:03:51 24° WNW 05:05:36 85° NNE 05:08:47 10° ESE visible
21 Mar 2.8 04:07:14 34° E 04:07:14 34° E 04:09:14 10° E visible
21 Mar 1.9 05:39:48 10° W 05:42:46 36° SSW 05:45:44 10° SE visible
22 Mar 1.1 04:42:57 54° WSW 04:43:22 62° SSW 04:46:30 10° ESE visible
23 Mar 4.1 03:46:33 14° ESE 03:46:33 14° ESE 03:47:04 10° ESE visible
23 Mar 2.6 05:18:48 15° WSW 05:20:23 21° SSW 05:22:52 10° SSE visible
24 Mar 2.9 04:22:33 22° SSE 04:22:33 22° SSE 04:23:58 10° SE visible
25 Mar 3.5 04:58:44 11° SSW 04:58:44 11° SSW 04:59:10 10° SSW visible
